Location: Unspecified
(34.4950°S, 58.5160°W)
Time: 23:27:46
(UTC+00:00)

MOS 1 Rocket - Pass Details

Date: 19 April 2026
Orbit: 608 x 813 km, 97.4° (Epoch: 16 May)

Event Time Altitude Azimuth Distance (km) Brightness Sun altitude
Rises 09:31:00 0° 354° (N) 2,957 6.6 -10.9°
Reaches altitude 10° 09:33:22 10° 345° (NNW) 2,029 5.6 -10.4°
Maximum altitude 09:37:25 36° 278° (W) 1,004 3.7 -9.6°
Drops below altitude 10° 09:41:25 10° 211° (SSW) 1,997 5.3 -8.8°
Sets 09:43:45 0° 201° (SSW) 2,904 6.2 -8.3°
